CW4279 Weather Reports


Display with metric or nautical units.
time (UTC)temp
F
wind
direction
speed
MPH
gust
MPH
rain 1hr
in
rain 24hr
in
rain mn
in
humidity
%
barometer
mb
20260902165126 80 148 0.0 0.0 0.00 0.00 0.00 64 1045.1
20260902164622 80 165 0.0 2.0 0.00 0.00 0.00 65 1045.0
20260902164121 80 158 1.0 3.0 0.00 0.00 0.00 65 1045.3
20260902163616 79 92 1.0 2.0 0.00 0.00 0.00 65 1045.2
20260902163115 79 54 0.0 2.0 0.00 0.00 0.00 66 1045.5
20260902162614 78 84 1.0 5.0 0.00 0.00 0.00 69 1045.4
20260902162109 78 169 0.0 2.0 0.00 0.00 0.00 69 1045.3
20260902161604 76 157 1.0 1.0 0.00 0.00 0.00 70 1045.4
20260902161100 77 58 5.0 6.0 0.00 0.00 0.00 71 1045.6
20260902160555 77 148 2.0 2.0 0.00 0.00 0.00 72 1045.4
20260902160051 76 137 1.0 3.0 0.00 0.00 0.00 72 1045.4
20260902155544 76 139 0.0 1.0 0.00 0.00 0.00 71 1045.9
20260902155043 76 119 0.0 1.0 0.00 0.00 0.00 71 1045.2
20260902154538 77 157 0.0 1.0 0.00 0.00 0.00 71 1045.4
20260902154033 77 185 2.0 2.0 0.00 0.00 0.00 71 1045.4
20260902153531 78 145 2.0 2.0 0.00 0.00 0.00 69 1045.2
20260902153027 78 162 1.0 1.0 0.00 0.00 0.00 69 1045.1
20260902152523 77 142 0.0 1.0 0.00 0.00 0.00 69 1045.1
20260902152019 75 158 1.0 1.0 0.00 0.00 0.00 73 1045.1
20260902151515 76 126 0.0 1.0 0.00 0.00 0.00 73 1045.1
20260902151014 76 122 1.0 2.0 0.00 0.00 0.00 72 1045.1
20260902150509 76 108 1.0 2.0 0.00 0.00 0.00 72 1044.9
20260902150004 75 151 0.0 1.0 0.00 0.00 0.00 73 1044.9
20260902145459 75 121 1.0 2.0 0.00 0.00 0.00 72 1044.9
20260902144953 75 181 2.0 2.0 0.00 0.00 0.00 72 1044.9
20260902144450 74 137 0.0 1.0 0.00 0.00 0.00 75 1045.1
20260902143944 74 134 0.0 1.0 0.00 0.00 0.00 76 1045.2
20260902143440 72 139 0.0 1.0 0.00 0.00 0.00 78 1045.3
20260902142934 72 77 1.0 2.0 0.00 0.00 0.00 79 1045.2
20260902142430 72 107 1.0 2.0 0.00 0.00 0.00 80 1045.3
20260902141926 71 147 1.0 2.0 0.00 0.00 0.00 80 1045.2
20260902141421 71 142 0.0 1.0 0.00 0.00 0.00 82 1045.3
20260902140920 70 145 0.0 1.0 0.00 0.00 0.00 84 1045.3
20260902140416 70 137 0.0 1.0 0.00 0.00 0.00 84 1045.5
20260902135910 69 169 1.0 1.0 0.00 0.00 0.00 85 1045.5
20260902135406 69 137 0.0 0.0 0.00 0.00 0.00 88 1045.4
20260902134904 68 129 0.0 1.0 0.00 0.00 0.00 88 1045.3
20260902134400 68 145 0.0 1.0 0.00 0.00 0.00 89 1045.3
20260902133855 67 143 0.0 1.0 0.00 0.00 0.00 90 1045.2
20260902133355 66 121 0.0 0.0 0.00 0.00 0.00 92 1045.4
20260902132850 66 120 1.0 1.0 0.00 0.00 0.00 93 1045.4
20260902132345 66 128 0.0 0.0 0.00 0.00 0.00 93 1045.5
20260902131841 66 152 0.0 0.0 0.00 0.00 0.00 92 1045.3
20260902131337 66 152 0.0 1.0 0.00 0.00 0.00 92 1045.6
20260902130836 66 152 0.0 1.0 0.00 0.00 0.00 91 1045.6
20260902130333 66 153 1.0 1.0 0.00 0.00 0.00 92 1045.6
20260902125827 66 149 0.0 1.0 0.00 0.00 0.00 93 1045.6
20260902125323 65 157 1.0 1.0 0.00 0.00 0.00 94 1045.5
20260902124819 65 128 0.0 0.0 0.00 0.00 0.00 95 1045.3
20260902124315 64 128 0.0 0.0 0.00 0.00 0.00 96 1045.6
20260902123809 64 128 0.0 0.0 0.00 0.00 0.00 96 1045.8
20260902123306 64 128 0.0 0.0 0.00 0.00 0.00 96 1045.9
20260902122805 64 132 0.0 0.0 0.00 0.00 0.00 97 1046.4
20260902122305 64 134 0.0 0.0 0.00 0.00 0.00 97 1046.0
20260902121800 64 137 0.0 0.0 0.00 0.00 0.00 97 1046.4
20260902121255 64 142 0.0 0.0 0.00 0.00 0.00 97 1046.3
20260902120751 63 124 0.0 0.0 0.00 0.00 0.00 97 1046.2
20260902120247 63 124 0.0 1.0 0.00 0.00 0.00 97 1046.0
20260902115742 63 123 0.0 0.0 0.00 0.00 0.00 97 1045.9
20260902115238 63 123 0.0 0.0 0.00 0.00 0.00 97 1046.0
20260902114734 63 123 0.0 0.0 0.00 0.00 0.00 97 1045.9
20260902114230 63 123 0.0 0.0 0.00 0.00 0.00 97 1045.7
20260902113724 63 123 0.0 0.0 0.00 0.00 0.00 97 1045.7
20260902113219 63 121 1.0 1.0 0.00 0.00 0.00 97 1045.6
20260902112719 63 136 0.0 1.0 0.00 0.00 0.00 96 1045.5
20260902112216 64 150 0.0 1.0 0.00 0.00 0.00 97 1045.8
20260902111711 64 162 1.0 1.0 0.00 0.00 0.00 97 1045.8
20260902111207 64 128 0.0 0.0 0.00 0.00 0.00 97 1045.5
20260902110703 63 128 0.0 0.0 0.00 0.00 0.00 96 1045.3
20260902110159 63 128 0.0 0.0 0.00 0.00 0.00 96 1045.0
20260902105658 63 128 0.0 0.0 0.00 0.00 0.00 96 1044.7
20260902105154 63 128 0.0 0.0 0.00 0.00 0.00 96 1044.8
20260902104649 63 127 0.0 0.0 0.00 0.00 0.00 96 1044.8
20260902104144 63 153 0.0 0.0 0.00 0.00 0.00 95 1044.7
20260902103643 63 153 0.0 0.0 0.00 0.00 0.00 95 1044.6
20260902103138 63 153 0.0 0.0 0.00 0.00 0.00 95 1044.5
20260902102635 63 153 0.0 0.0 0.00 0.00 0.00 95 1044.6
20260902102132 64 153 0.0 0.0 0.00 0.00 0.00 95 1044.6
20260902101627 64 154 0.0 0.0 0.00 0.00 0.00 95 1044.6
20260902101126 63 153 0.0 1.0 0.00 0.00 0.00 96 1044.6
20260902100621 63 124 0.0 1.0 0.00 0.00 0.00 95 1044.6
20260902100116 64 124 0.0 0.0 0.00 0.00 0.00 95 1044.0
20260902095615 64 124 0.0 0.0 0.00 0.00 0.00 95 1044.3
20260902095114 64 123 0.0 1.0 0.00 0.00 0.00 94 1044.3
20260902094609 64 124 0.0 1.0 0.00 0.00 0.00 94 1044.5
20260902094106 64 124 0.0 1.0 0.00 0.00 0.00 94 1044.3
20260902093600 65 124 0.0 0.0 0.00 0.00 0.00 94 1044.6
20260902093054 65 124 0.0 0.0 0.00 0.00 0.00 93 1044.5
20260902092549 65 122 0.0 1.0 0.00 0.00 0.00 92 1044.3
20260902092044 65 125 0.0 0.0 0.00 0.00 0.00 92 1044.7
20260902091539 66 112 1.0 1.0 0.00 0.00 0.00 91 1044.8
20260902091036 66 104 1.0 2.0 0.00 0.00 0.00 90 1045.3
20260902090531 67 120 0.0 1.0 0.00 0.00 0.00 89 1045.3
20260902090030 67 142 0.0 0.0 0.00 0.00 0.00 85 1045.1
20260902085524 67 151 1.0 1.0 0.00 0.00 0.00 86 1045.2
20260902085020 67 147 1.0 2.0 0.00 0.00 0.00 86 1045.5
20260902084516 67 159 2.0 2.0 0.00 0.00 0.00 86 1045.5
20260902084011 66 151 1.0 1.0 0.00 0.00 0.00 87 1045.6
20260902083507 66 151 0.0 1.0 0.00 0.00 0.00 89 1045.3
20260902083001 66 151 0.0 1.0 0.00 0.00 0.00 89 1045.4
20260902082457 66 151 0.0 0.0 0.00 0.00 0.00 88 1045.2
20260902081953 66 151 0.0 0.0 0.00 0.00 0.00 88 1045.2
20260902081449 66 151 0.0 1.0 0.00 0.00 0.00 88 1045.3
20260902080944 66 151 0.0 0.0 0.00 0.00 0.00 88 1045.2
20260902080440 67 151 0.0 0.0 0.00 0.00 0.00 88 1045.2
20260902075939 67 151 0.0 1.0 0.00 0.00 0.00 85 1045.1
20260902075436 67 151 0.0 1.0 0.00 0.00 0.00 84 1045.0
20260902074931 67 150 0.0 1.0 0.00 0.00 0.00 84 1045.1
20260902074426 67 152 1.0 1.0 0.00 0.00 0.00 86 1045.2
20260902073921 67 149 0.0 1.0 0.00 0.00 0.00 89 1045.1
20260902073417 67 149 0.0 1.0 0.00 0.00 0.00 89 1045.2
20260902072913 67 149 0.0 1.0 0.00 0.00 0.00 88 1045.2
20260902072409 67 149 0.0 1.0 0.00 0.00 0.00 88 1045.3
20260902071905 66 136 0.0 0.0 0.00 0.00 0.00 89 1045.3
20260902071404 66 136 0.0 1.0 0.00 0.00 0.00 90 1045.0
20260902070901 66 135 0.0 0.0 0.00 0.00 0.00 90 1045.1
20260902070356 65 135 0.0 0.0 0.00 0.00 0.00 91 1045.0
20260902065854 66 134 0.0 0.0 0.00 0.00 0.00 94 1045.1
20260902065350 66 134 0.0 0.0 0.00 0.00 0.00 94 1045.2
20260902064845 66 134 0.0 0.0 0.00 0.00 0.00 93 1045.2
20260902064341 67 134 0.0 1.0 0.00 0.00 0.00 92 1045.1
20260902063837 68 134 0.0 1.0 0.00 0.00 0.00 90 1045.1
20260902063336 68 132 0.0 1.0 0.00 0.00 0.00 86 1045.1
20260902062831 67 136 0.0 1.0 0.00 0.00 0.00 83 1045.2
20260902062325 66 137 0.0 0.0 0.00 0.00 0.00 85 1045.1
20260902061825 65 148 0.0 0.0 0.00 0.00 0.00 89 1045.2
20260902061320 66 146 0.0 0.0 0.00 0.00 0.00 92 1044.9
20260902060816 66 146 0.0 0.0 0.00 0.00 0.00 93 1045.1
20260902060312 66 146 0.0 0.0 0.00 0.00 0.00 94 1045.2
20260902055808 66 146 0.0 0.0 0.00 0.00 0.00 94 1045.2
20260902055307 66 146 0.0 0.0 0.00 0.00 0.00 94 1045.1
20260902054759 66 146 0.0 1.0 0.00 0.00 0.00 93 1045.3
20260902054255 66 142 0.0 0.0 0.00 0.00 0.00 92 1045.4
20260902053750 66 149 0.0 0.0 0.00 0.00 0.00 93 1045.4
20260902053249 66 131 0.0 0.0 0.00 0.00 0.00 93 1045.4
20260902052748 66 132 0.0 0.0 0.00 0.00 0.00 92 1045.6
20260902052244 67 132 0.0 0.0 0.00 0.00 0.00 93 1045.5
20260902051744 67 132 0.0 0.0 0.00 0.00 0.00 92 1045.3
20260902051238 68 132 0.0 1.0 0.00 0.00 0.00 91 1045.5
20260902050733 68 146 0.0 0.0 0.00 0.00 0.00 89 1045.6
20260902050229 68 146 0.0 0.0 0.00 0.00 0.00 86 1045.7
20260902045728 67 146 0.0 0.0 0.00 0.00 0.00 89 1045.4
20260902045224 67 146 0.0 0.0 0.00 0.00 0.00 90 1045.1
20260902044720 67 146 0.0 0.0 0.00 0.00 0.00 92 1045.1
20260902044215 67 133 0.0 0.0 0.00 0.00 0.00 93 1045.0
20260902043705 67 129 0.0 0.0 0.00 0.00 0.00 93 1045.1
20260902043200 67 129 0.0 0.0 0.00 0.00 0.00 93 1045.2
20260902042659 67 129 0.0 0.0 0.00 0.00 0.00 93 1045.6
20260902042155 67 129 0.0 0.0 0.00 0.00 0.00 93 1045.5
20260902041654 67 129 0.0 0.0 0.00 0.00 0.00 93 1045.6
20260902041149 67 129 0.0 0.0 0.00 0.00 0.00 93 1045.3
20260902040649 67 130 0.0 0.0 0.00 0.00 0.00 94 1045.3
20260902040144 68 122 0.0 0.0 0.00 0.00 0.00 94 1045.4
20260902035642 68 126 0.0 0.0 0.00 0.00 0.00 93 1045.6
20260902035138 68 126 0.0 0.0 0.00 0.00 0.00 93 1045.8
20260902034636 68 126 0.0 0.0 0.00 0.00 0.00 93 1045.8
20260902034131 68 126 0.0 0.0 0.00 0.00 0.00 93 1045.9
20260902033631 68 126 0.0 0.0 0.00 0.00 0.00 93 1045.7
20260902033125 68 126 0.0 0.0 0.00 0.00 0.00 93 1045.9
20260902032623 68 129 0.0 0.0 0.00 0.00 0.00 92 1045.7
20260902032118 68 130 0.0 0.0 0.00 0.00 0.00 92 1045.7
20260902031613 68 129 0.0 0.0 0.00 0.00 0.00 92 1045.6
20260902031109 68 126 0.0 0.0 0.00 0.00 0.00 92 1045.6
20260902030604 68 126 0.0 0.0 0.00 0.00 0.00 91 1045.7
20260902030103 68 140 0.0 1.0 0.00 0.00 0.00 90 1045.8
20260902025558 68 142 0.0 0.0 0.00 0.00 0.00 89 1045.3
20260902025053 68 142 0.0 0.0 0.00 0.00 0.00 89 1045.4
20260902024549 68 142 0.0 0.0 0.00 0.00 0.00 89 1045.4
20260902024048 68 142 0.0 0.0 0.00 0.00 0.00 89 1045.2
20260902023544 69 142 0.0 0.0 0.00 0.00 0.00 88 1045.4
20260902023039 69 142 0.0 0.0 0.00 0.00 0.00 87 1045.4
20260902022533 69 142 0.0 0.0 0.00 0.00 0.00 84 1045.6
20260902022029 69 142 0.0 0.0 0.00 0.00 0.00 87 1045.2
20260902021525 69 142 0.0 0.0 0.00 0.00 0.00 86 1045.3
20260902021020 69 142 0.0 0.0 0.00 0.00 0.00 87 1045.2
20260902020515 69 141 0.0 0.0 0.00 0.00 0.00 87 1044.9
20260902020011 70 141 0.0 0.0 0.00 0.00 0.00 88 1044.9
20260902015512 70 141 0.0 0.0 0.00 0.00 0.00 86 1045.4
20260902015007 70 142 0.0 0.0 0.00 0.00 0.00 83 1045.4
20260902014503 70 142 0.0 0.0 0.00 0.00 0.00 83 1045.2
20260902013959 70 142 0.0 0.0 0.00 0.00 0.00 84 1044.9
20260902013453 70 142 0.0 0.0 0.00 0.00 0.00 84 1044.7
20260902012948 70 142 0.0 0.0 0.00 0.00 0.00 80 1044.8
20260902012444 70 142 0.0 0.0 0.00 0.00 0.00 83 1044.6
20260902011939 71 142 0.0 0.0 0.00 0.00 0.00 83 1044.5
20260902011435 71 142 0.0 0.0 0.00 0.00 0.00 81 1044.7
20260902010934 71 142 0.0 0.0 0.00 0.00 0.00 79 1044.9
20260902010429 71 142 0.0 0.0 0.00 0.00 0.00 78 1044.7
20260902005928 71 142 0.0 0.0 0.00 0.00 0.00 78 1044.9
20260902005427 72 142 0.0 0.0 0.00 0.00 0.00 79 1044.8
20260902004924 72 142 0.0 0.0 0.00 0.00 0.00 79 1045.0
20260902004423 73 141 0.0 0.0 0.00 0.00 0.00 75 1045.0
20260902003918 74 141 0.0 0.0 0.00 0.00 0.00 71 1044.9
20260902003413 74 141 0.0 0.0 0.00 0.00 0.00 69 1045.1
20260902002909 74 145 0.0 0.0 0.00 0.00 0.00 70 1045.1
20260902002409 74 145 0.0 0.0 0.00 0.00 0.00 70 1045.0
20260902001904 75 145 0.0 0.0 0.00 0.00 0.00 71 1044.8
20260902001358 75 142 0.0 0.0 0.00 0.00 0.00 69 1044.9
20260902000853 76 142 0.0 0.0 0.00 0.00 0.00 68 1044.9
20260902000353 76 142 0.0 0.0 0.00 0.00 0.00 68 1045.0
20260901235848 76 148 0.0 0.0 0.00 0.00 0.00 68 1044.8
20260901235343 77 148 0.0 0.0 0.00 0.00 0.00 67 1045.0
20260901234838 77 148 0.0 0.0 0.00 0.00 0.00 66 1045.0
20260901234332 78 148 0.0 0.0 0.00 0.00 0.00 66 1045.0
20260901233827 79 142 0.0 0.0 0.00 0.00 0.00 65 1045.1
20260901233323 80 155 0.0 1.0 0.00 0.00 0.00 64 1045.3
20260901232819 80 151 0.0 0.0 0.00 0.00 0.00 58 1045.0
20260901232313 80 153 0.0 1.0 0.00 0.00 0.00 59 1044.9
20260901231809 80 158 0.0 1.0 0.00 0.00 0.00 60 1044.9
20260901231305 79 151 0.0 1.0 0.00 0.00 0.00 59 1044.8
20260901230801 79 119 1.0 1.0 0.00 0.00 0.00 60 1044.8
20260901230255 80 149 0.0 0.0 0.00 0.00 0.00 58 1044.8
20260901225750 80 150 0.0 0.0 0.00 0.00 0.00 59 1044.9
20260901225250 81 162 0.0 1.0 0.00 0.00 0.00 55 1044.9
20260901224746 81 137 0.0 1.0 0.00 0.00 0.00 55 1044.8
20260901224237 83 142 0.0 1.0 0.00 0.00 0.00 57 1044.9
20260901223733 84 188 1.0 1.0 0.00 0.00 0.00 52 1044.9
20260901223227 84 156 1.0 1.0 0.00 0.00 0.00 52 1044.9
20260901222723 84 185 1.0 1.0 0.00 0.00 0.00 50 1044.9
20260901222219 83 130 1.0 1.0 0.00 0.00 0.00 50 1045.0
20260901221715 82 134 0.0 0.0 0.00 0.00 0.00 53 1044.8
20260901221211 82 127 1.0 1.0 0.00 0.00 0.00 51 1044.9
20260901220709 82 129 0.0 0.0 0.00 0.00 0.00 50 1044.7
20260901220209 82 152 1.0 1.0 0.00 0.00 0.00 49 1044.6
20260901215707 82 162 1.0 1.0 0.00 0.00 0.00 47 1044.9
20260901215202 83 126 1.0 2.0 0.00 0.00 0.00 51 1044.6
20260901214700 83 153 0.0 1.0 0.00 0.00 0.00 48 1044.5
20260901214154 84 142 1.0 2.0 0.00 0.00 0.00 46 1044.5
20260901213649 84 1 3.0 3.0 0.00 0.00 0.00 41 1044.6
20260901213144 83 157 0.0 1.0 0.00 0.00 0.00 45 1044.3
20260901212643 83 113 1.0 2.0 0.00 0.00 0.00 45 1044.3
20260901212140 84 135 0.0 2.0 0.00 0.00 0.00 44 1044.7
20260901211634 84 73 1.0 2.0 0.00 0.00 0.00 48 1044.8
20260901211131 84 110 1.0 2.0 0.00 0.00 0.00 46 1044.8
20260901210626 85 156 0.0 1.0 0.00 0.00 0.00 49 1045.0
20260901210122 85 133 0.0 0.0 0.00 0.00 0.00 49 1044.8
20260901205618 85 156 0.0 2.0 0.00 0.00 0.00 46 1045.0
20260901205117 86 155 1.0 2.0 0.00 0.00 0.00 46 1044.8
20260901204613 85 158 1.0 3.0 0.00 0.00 0.00 49 1044.8
20260901204108 84 132 0.0 0.0 0.00 0.00 0.00 52 1045.1
20260901203608 82 141 0.0 2.0 0.00 0.00 0.00 49 1045.0
20260901203103 83 132 0.0 1.0 0.00 0.00 0.00 49 1044.9
20260901202602 82 339 1.0 2.0 0.00 0.00 0.00 48 1045.0
20260901202059 82 126 0.0 1.0 0.00 0.00 0.00 49 1045.1
20260901201554 82 101 1.0 1.0 0.00 0.00 0.00 47 1045.1
20260901201053 83 121 0.0 1.0 0.00 0.00 0.00 49 1045.5
20260901200553 83 152 0.0 1.0 0.00 0.00 0.00 51 1045.3
20260901200048 83 130 0.0 1.0 0.00 0.00 0.00 49 1045.0
20260901195546 83 157 1.0 1.0 0.00 0.00 0.00 46 1044.9
20260901195046 84 120 1.0 2.0 0.00 0.00 0.00 43 1045.1
20260901194541 85 75 2.0 2.0 0.00 0.00 0.00 42 1045.2
20260901194037 87 140 2.0 3.0 0.00 0.00 0.00 41 1045.3
20260901193536 87 79 3.0 3.0 0.00 0.00 0.00 41 1045.3
20260901193031 87 246 2.0 3.0 0.00 0.00 0.00 42 1045.3
20260901192526 86 142 1.0 1.0 0.00 0.00 0.00 47 1045.2
20260901192022 86 7 1.0 1.0 0.00 0.00 0.00 47 1045.3
20260901191518 85 165 1.0 2.0 0.00 0.00 0.00 49 1045.2
20260901191014 84 161 2.0 2.0 0.00 0.00 0.00 50 1045.4
20260901190509 84 133 1.0 1.0 0.00 0.00 0.00 51 1045.3
20260901190008 84 121 0.0 2.0 0.00 0.00 0.00 50 1045.4
20260901185501 84 113 0.0 2.0 0.00 0.00 0.00 49 1045.5
20260901185000 84 38 2.0 2.0 0.00 0.00 0.00 48 1045.6
20260901184455 86 143 2.0 2.0 0.00 0.00 0.00 44 1045.5
20260901183951 86 278 2.0 2.0 0.00 0.00 0.00 50 1045.6
20260901183445 86 131 2.0 2.0 0.00 0.00 0.00 45 1045.7
20260901182941 85 160 1.0 2.0 0.00 0.00 0.00 51 1046.0
20260901182437 85 144 2.0 2.0 0.00 0.00 0.00 53 1045.8
20260901181931 84 150 0.0 1.0 0.00 0.00 0.00 50 1045.8
20260901181426 83 175 1.0 2.0 0.00 0.00 0.00 51 1046.0
20260901180925 84 144 1.0 3.0 0.00 0.00 0.00 50 1045.9
20260901180424 84 123 1.0 2.0 0.00 0.00 0.00 47 1046.2
20260901175922 84 193 1.0 2.0 0.00 0.00 0.00 49 1046.0
20260901175418 84 191 1.0 2.0 0.00 0.00 0.00 52 1045.9
20260901174913 83 149 0.0 1.0 0.00 0.00 0.00 54 1046.2
20260901174409 83 162 1.0 2.0 0.00 0.00 0.00 56 1046.1
20260901173904 83 160 1.0 1.0 0.00 0.00 0.00 56 1046.0
20260901173359 83 198 1.0 3.0 0.00 0.00 0.00 56 1046.3
20260901172856 81 157 0.0 1.0 0.00 0.00 0.00 60 1046.2
20260901172354 81 140 0.0 1.0 0.00 0.00 0.00 60 1046.4
20260901171853 81 210 1.0 2.0 0.00 0.00 0.00 61 1046.2
20260901171352 80 296 3.0 3.0 0.00 0.00 0.00 61 1046.2
20260901170851 80 161 0.0 2.0 0.00 0.00 0.00 59 1046.3
20260901170346 80 115 1.0 1.0 0.00 0.00 0.00 61 1046.3
20260901165846 80 148 1.0 2.0 0.00 0.00 0.00 61 1046.2